When you browse on this site, cookies collect data to enhance your experience and personalize the content and advertising you see.
Visit our Privacy Policy to learn more. By continuing to use the site, you agree to this use of cookies and data.

Hourly Weather Batina

Today, 7 August, Friday

Time Temperature Precipitation Wind Pressure Humidity
00:00 +21°C° 0 mm 1 mps 672 mmHg 47%
01:00 +21°C° 0 mm 1 mps 672 mmHg 47%
02:00 +20°C° 0 mm 1 mps 672 mmHg 47%
03:00 +18°C° 0 mm 0 mps 671 mmHg 47%
04:00 +19°C° 0 mm 0 mps 672 mmHg 46%
05:00 +20°C° 0 mm 0 mps 673 mmHg 44%
06:00 +23°C° 0 mm 1 mps 674 mmHg 43%
07:00 +25°C° 0 mm 1 mps 674 mmHg 40%
08:00 +26°C° 0 mm 2 mps 674 mmHg 37%
09:00 +28°C° 0 mm 3 mps 675 mmHg 35%
10:00 +29°C° 0 mm 3 mps 675 mmHg 30%
11:00 +30°C° 0 mm 4 mps 675 mmHg 25%
12:00 +33°C° 0 mm 5 mps 675 mmHg 21%
13:00 +33°C° 0 mm 5 mps 675 mmHg 19%
14:00 +33°C° 0 mm 5 mps 674 mmHg 17%
15:00 +34°C° 0 mm 5 mps 674 mmHg 15%
16:00 +33°C° 0 mm 5 mps 674 mmHg 17%
17:00 +30°C° 0 mm 6 mps 674 mmHg 19%
18:00 +29°C° 0 mm 6 mps 674 mmHg 22%
19:00 +27°C° 0 mm 5 mps 674 mmHg 27%
20:00 +26°C° 0 mm 4 mps 673 mmHg 33%
21:00 +24°C° 0 mm 3 mps 673 mmHg 39%
22:00 +22°C° 0 mm 3 mps 673 mmHg 41%
23:00 +21°C° 0 mm 2 mps 673 mmHg 44%

Tomorrow, 8 August, Saturday

Time Temperature Precipitation Wind Pressure Humidity
00:00 +20°C° 0 mm 2 mps 673 mmHg 46%
01:00 +20°C° 0 mm 2 mps 673 mmHg 46%
02:00 +19°C° 0 mm 2 mps 673 mmHg 46%
03:00 +20°C° 0 mm 1 mps 672 mmHg 46%
04:00 +21°C° 0 mm 1 mps 673 mmHg 44%
05:00 +22°C° 0 mm 1 mps 673 mmHg 41%
06:00 +23°C° 0 mm 1 mps 674 mmHg 38%
07:00 +24°C° 0 mm 1 mps 674 mmHg 35%
08:00 +26°C° 0 mm 2 mps 675 mmHg 31%
09:00 +27°C° 0 mm 2 mps 675 mmHg 27%
10:00 +28°C° 0 mm 3 mps 675 mmHg 25%
11:00 +30°C° 0 mm 4 mps 675 mmHg 22%
12:00 +32°C° 0 mm 4 mps 675 mmHg 20%
13:00 +32°C° 0 mm 5 mps 675 mmHg 19%
14:00 +32°C° 0 mm 5 mps 675 mmHg 18%
15:00 +33°C° 0 mm 5 mps 674 mmHg 17%
16:00 +32°C° 0 mm 6 mps 674 mmHg 21%
17:00 +30°C° 0 mm 6 mps 674 mmHg 24%
18:00 +29°C° 0 mm 7 mps 673 mmHg 28%
19:00 +27°C° 0 mm 6 mps 673 mmHg 33%
20:00 +25°C° 0 mm 4 mps 673 mmHg 38%
21:00 +24°C° 0 mm 3 mps 673 mmHg 43%
22:00 +22°C° 0 mm 3 mps 673 mmHg 45%
23:00 +21°C° 0 mm 3 mps 672 mmHg 47%

Day after tomorrow, 9 August, Sunday

Time Temperature Precipitation Wind Pressure Humidity
00:00 +21°C° 0 mm 2 mps 672 mmHg 49%
01:00 +20°C° 0 mm 2 mps 672 mmHg 51%
02:00 +20°C° 0 mm 2 mps 672 mmHg 52%
03:00 +19°C° 0 mm 2 mps 671 mmHg 53%
04:00 +21°C° 0 mm 1 mps 672 mmHg 50%
05:00 +22°C° 0 mm 1 mps 672 mmHg 47%
06:00 +22°C° 0 mm 1 mps 673 mmHg 44%
07:00 +24°C° 0 mm 1 mps 673 mmHg 39%
08:00 +26°C° 0 mm 1 mps 674 mmHg 34%
09:00 +27°C° 0 mm 2 mps 674 mmHg 30%
10:00 +28°C° 0 mm 2 mps 674 mmHg 27%
11:00 +30°C° 0 mm 3 mps 674 mmHg 25%
12:00 +32°C° 0 mm 4 mps 674 mmHg 22%
13:00 +32°C° 0 mm 4 mps 673 mmHg 21%
14:00 +33°C° 0 mm 4 mps 673 mmHg 19%
15:00 +33°C° 0 mm 4 mps 673 mmHg 18%
16:00 +32°C° 0 mm 4 mps 672 mmHg 19%
17:00 +32°C° 0 mm 4 mps 672 mmHg 21%
18:00 +30°C° 0 mm 4 mps 672 mmHg 22%
19:00 +28°C° 0 mm 4 mps 672 mmHg 29%
20:00 +26°C° 0 mm 3 mps 672 mmHg 36%
21:00 +25°C° 0 mm 3 mps 672 mmHg 42%
22:00 +24°C° 0 mm 2 mps 672 mmHg 45%
23:00 +23°C° 0 mm 2 mps 671 mmHg 48%

10 August, Monday

Time Temperature Precipitation Wind Pressure Humidity
00:00 +23°C° 0 mm 2 mps 671 mmHg 51%
01:00 +22°C° 0 mm 1 mps 671 mmHg 52%
02:00 +21°C° 0 mm 1 mps 670 mmHg 54%
03:00 +21°C° 0 mm 1 mps 670 mmHg 56%
04:00 +22°C° 0 mm 1 mps 670 mmHg 52%
05:00 +23°C° 0 mm 1 mps 671 mmHg 49%
06:00 +22°C° 0 mm 0 mps 671 mmHg 46%
07:00 +25°C° 0 mm 1 mps 672 mmHg 40%
08:00 +27°C° 0 mm 1 mps 673 mmHg 34%
09:00 +29°C° 0 mm 2 mps 673 mmHg 29%
10:00 +30°C° 0 mm 2 mps 673 mmHg 26%
11:00 +31°C° 0 mm 3 mps 673 mmHg 23%
12:00 +33°C° 0 mm 3 mps 673 mmHg 20%
13:00 +34°C° 0 mm 4 mps 673 mmHg 18%
14:00 +34°C° 0 mm 4 mps 672 mmHg 17%
15:00 +35°C° 0 mm 4 mps 672 mmHg 16%
16:00 +34°C° 0 mm 4 mps 672 mmHg 16%
17:00 +33°C° 0 mm 4 mps 672 mmHg 17%
18:00 +32°C° 0 mm 4 mps 672 mmHg 17%
19:00 +30°C° 0 mm 3 mps 672 mmHg 21%
20:00 +28°C° 0 mm 2 mps 672 mmHg 26%
21:00 +26°C° 0 mm 1 mps 672 mmHg 30%
22:00 +25°C° 0 mm 1 mps 672 mmHg 33%
23:00 +24°C° 0 mm 1 mps 672 mmHg 36%

11 August, Tuesday

Time Temperature Precipitation Wind Pressure Humidity
00:00 +24°C° 0 mm 1 mps 671 mmHg 40%
01:00 +23°C° 0 mm 1 mps 671 mmHg 40%
02:00 +23°C° 0 mm 1 mps 671 mmHg 41%
03:00 +22°C° 0 mm 1 mps 671 mmHg 42%
04:00 +23°C° 0 mm 1 mps 671 mmHg 40%
05:00 +24°C° 0 mm 1 mps 672 mmHg 38%
06:00 +25°C° 0 mm 2 mps 672 mmHg 36%
07:00 +27°C° 0 mm 3 mps 673 mmHg 32%
08:00 +29°C° 0 mm 3 mps 674 mmHg 29%
09:00 +32°C° 0 mm 4 mps 674 mmHg 25%
10:00 +33°C° 0 mm 4 mps 674 mmHg 24%
11:00 +33°C° 0 mm 4 mps 674 mmHg 22%
12:00 +34°C° 0 mm 4 mps 674 mmHg 21%
13:00 +35°C° 0 mm 4 mps 674 mmHg 20%
14:00 +35°C° 0 mm 4 mps 673 mmHg 19%
15:00 +36°C° 0 mm 4 mps 673 mmHg 18%
16:00 +35°C° 0 mm 4 mps 673 mmHg 18%
17:00 +34°C° 0 mm 4 mps 672 mmHg 19%
18:00 +34°C° 0 mm 4 mps 672 mmHg 20%
19:00 +31°C° 0 mm 3 mps 672 mmHg 24%
20:00 +29°C° 0 mm 2 mps 672 mmHg 28%
21:00 +26°C° 0 mm 1 mps 672 mmHg 33%
22:00 +26°C° 0 mm 1 mps 672 mmHg 34%
23:00 +25°C° 0 mm 1 mps 672 mmHg 35%

12 August, Wednesday

Time Temperature Precipitation Wind Pressure Humidity
00:00 +25°C° 0 mm 1 mps 671 mmHg 37%
01:00 +25°C° 0 mm 1 mps 671 mmHg 37%
02:00 +24°C° 0 mm 1 mps 671 mmHg 37%
03:00 +24°C° 0 mm 1 mps 671 mmHg 37%
04:00 +25°C° 0 mm 2 mps 671 mmHg 36%
05:00 +26°C° 0 mm 2 mps 672 mmHg 35%
06:00 +26°C° 0 mm 2 mps 672 mmHg 34%
07:00 +29°C° 0 mm 2 mps 673 mmHg 30%
08:00 +31°C° 0 mm 3 mps 673 mmHg 26%
09:00 +34°C° 0 mm 4 mps 674 mmHg 22%
10:00 +34°C° 0 mm 4 mps 674 mmHg 20%
11:00 +35°C° 0 mm 4 mps 674 mmHg 19%
12:00 +36°C° 0 mm 4 mps 674 mmHg 17%
13:00 +36°C° 0 mm 4 mps 673 mmHg 16%
14:00 +37°C° 0 mm 4 mps 673 mmHg 15%
15:00 +37°C° 0 mm 4 mps 673 mmHg 14%
16:00 +36°C° 0 mm 4 mps 672 mmHg 16%
17:00 +35°C° 0 mm 5 mps 672 mmHg 17%
18:00 +34°C° 0 mm 5 mps 672 mmHg 19%
19:00 +33°C° 0 mm 4 mps 672 mmHg 22%
20:00 +30°C° 0 mm 3 mps 672 mmHg 25%
21:00 +28°C° 0 mm 2 mps 672 mmHg 29%
22:00 +28°C° 0 mm 2 mps 672 mmHg 29%
23:00 +27°C° 0 mm 2 mps 672 mmHg 29%
Show more